Location: Casco Millpond
(44.5581°N, 87.6111°W)
Time: 09:03:25
(UTC+00:00)

CENTAUR R/B - Pass Details

Date: 16 January 2026
Orbit: 629 x 1551 km, 63.4° (Epoch: 10 February)

Event Time Altitude Azimuth Distance (km) Brightness Sun altitude
Rises 12:17:04 0° 207° (SSW) 3,143 5.1 -11.6°
Reaches altitude 10° 12:19:14 10° 205° (SSW) 2,312 4.4 -11.2°
Maximum altitude 12:24:30 71° 123° (ESE) 945 2.7 -10.3°
Drops below altitude 10° 12:31:12 10° 40° (NE) 2,915 5.3 -9.2°
Sets 12:34:13 0° 39° (NE) 4,027 6.0 -8.7°
